When you browse on this site, cookies collect data to enhance your experience and personalize the content and advertising you see.
Visit our Privacy Policy to learn more. By continuing to use the site, you agree to this use of cookies and data.
  • In Latvia
  • List of Countries
  • For 7 days
  • Water Temperature
  • Weather Map
  • Weather Widgets
  • user-avatar
    Login

    Hourly Weather Stepanakert

    Today, 2 June, Tuesday

    Time Temperature Precipitation Wind Pressure Humidity
    00:00 +19°C° 0 mm 2 mps 689 mmHg 68%
    01:00 +19°C° 0 mm 2 mps 689 mmHg 66%
    02:00 +19°C° 0 mm 2 mps 689 mmHg 64%
    03:00 +18°C° 0 mm 2 mps 689 mmHg 63%
    04:00 +19°C° 0 mm 2 mps 689 mmHg 62%
    05:00 +20°C° 0 mm 2 mps 689 mmHg 61%
    06:00 +22°C° 0 mm 1 mps 689 mmHg 59%
    07:00 +24°C° 0 mm 1 mps 689 mmHg 55%
    08:00 +26°C° 0 mm 1 mps 689 mmHg 51%
    09:00 +28°C° 0 mm 1 mps 690 mmHg 46%
    10:00 +29°C° 0 mm 2 mps 689 mmHg 45%
    11:00 +30°C° 0 mm 2 mps 689 mmHg 43%
    12:00 +31°C° 0 mm 3 mps 689 mmHg 41%
    13:00 +31°C° 0 mm 3 mps 688 mmHg 41%
    14:00 +31°C° 0 mm 3 mps 688 mmHg 41%
    15:00 +32°C° 0 mm 4 mps 687 mmHg 42%
    16:00 +30°C° 0 mm 3 mps 687 mmHg 47%
    17:00 +29°C° 0 mm 3 mps 687 mmHg 51%
    18:00 +28°C° 0 mm 2 mps 687 mmHg 56%
    19:00 +25°C° 0 mm 2 mps 687 mmHg 63%
    20:00 +23°C° 0 mm 2 mps 687 mmHg 71%
    21:00 +20°C° 0 mm 2 mps 686 mmHg 78%
    22:00 +19°C° 0 mm 2 mps 686 mmHg 77%
    23:00 +19°C° 0 mm 2 mps 686 mmHg 76%

    Tomorrow, 3 June, Wednesday

    Time Temperature Precipitation Wind Pressure Humidity
    00:00 +19°C° 0 mm 2 mps 686 mmHg 74%
    01:00 +19°C° 0 mm 2 mps 686 mmHg 73%
    02:00 +20°C° 0 mm 1 mps 686 mmHg 73%
    03:00 +20°C° 0 mm 1 mps 686 mmHg 72%
    04:00 +20°C° 0 mm 1 mps 687 mmHg 70%
    05:00 +21°C° 0 mm 1 mps 687 mmHg 69%
    06:00 +22°C° 0 mm 1 mps 687 mmHg 67%
    07:00 +24°C° 0 mm 1 mps 687 mmHg 60%
    08:00 +26°C° 0 mm 1 mps 688 mmHg 52%
    09:00 +28°C° 0 mm 1 mps 688 mmHg 44%
    10:00 +29°C° 0 mm 2 mps 688 mmHg 40%
    11:00 +31°C° 0 mm 2 mps 688 mmHg 36%
    12:00 +32°C° 0 mm 2 mps 688 mmHg 32%
    13:00 +33°C° 0 mm 3 mps 688 mmHg 33%
    14:00 +33°C° 0 mm 3 mps 688 mmHg 33%
    15:00 +33°C° 0 mm 3 mps 688 mmHg 33%
    16:00 +30°C° 0.1 mm 3 mps 688 mmHg 42%
    17:00 +27°C° 0.1 mm 3 mps 688 mmHg 51%
    18:00 +25°C° 0.1 mm 3 mps 688 mmHg 59%
    19:00 +23°C° 0.2 mm 2 mps 688 mmHg 61%
    20:00 +21°C° 0.2 mm 2 mps 688 mmHg 63%
    21:00 +21°C° 0.2 mm 1 mps 688 mmHg 65%
    22:00 +19°C° 0 mm 2 mps 688 mmHg 65%
    23:00 +19°C° 0 mm 2 mps 688 mmHg 65%

    Day after tomorrow, 4 June, Thursday

    Time Temperature Precipitation Wind Pressure Humidity
    00:00 +19°C° 0 mm 2 mps 688 mmHg 66%
    01:00 +18°C° 0 mm 2 mps 688 mmHg 66%
    02:00 +18°C° 0 mm 2 mps 689 mmHg 66%
    03:00 +19°C° 0 mm 1 mps 689 mmHg 67%
    04:00 +20°C° 0 mm 1 mps 689 mmHg 66%
    05:00 +21°C° 0 mm 1 mps 690 mmHg 66%
    06:00 +21°C° 0 mm 1 mps 690 mmHg 65%
    07:00 +23°C° 0 mm 1 mps 690 mmHg 61%
    08:00 +24°C° 0 mm 2 mps 690 mmHg 57%
    09:00 +25°C° 0 mm 2 mps 691 mmHg 53%
    10:00 +26°C° 0 mm 2 mps 691 mmHg 51%
    11:00 +27°C° 0 mm 2 mps 691 mmHg 50%
    12:00 +28°C° 0 mm 3 mps 691 mmHg 49%
    13:00 +28°C° 0 mm 3 mps 690 mmHg 48%
    14:00 +28°C° 0 mm 3 mps 690 mmHg 47%
    15:00 +29°C° 0 mm 3 mps 690 mmHg 47%
    16:00 +27°C° 0 mm 3 mps 690 mmHg 54%
    17:00 +26°C° 0 mm 3 mps 690 mmHg 62%
    18:00 +25°C° 0 mm 2 mps 690 mmHg 70%
    19:00 +23°C° 0 mm 2 mps 690 mmHg 75%
    20:00 +20°C° 0 mm 2 mps 690 mmHg 80%
    21:00 +20°C° 0 mm 1 mps 690 mmHg 86%
    22:00 +20°C° 0 mm 1 mps 690 mmHg 85%
    23:00 +19°C° 0 mm 1 mps 691 mmHg 84%

    5 June, Friday

    Time Temperature Precipitation Wind Pressure Humidity
    00:00 +19°C° 0 mm 1 mps 691 mmHg 84%
    01:00 +19°C° 0 mm 1 mps 691 mmHg 82%
    02:00 +18°C° 0 mm 1 mps 691 mmHg 80%
    03:00 +18°C° 0 mm 1 mps 691 mmHg 78%
    04:00 +19°C° 0 mm 1 mps 691 mmHg 77%
    05:00 +20°C° 0 mm 1 mps 692 mmHg 75%
    06:00 +20°C° 0 mm 1 mps 692 mmHg 74%
    07:00 +22°C° 0.1 mm 1 mps 693 mmHg 71%
    08:00 +23°C° 0.1 mm 2 mps 693 mmHg 67%
    09:00 +25°C° 0.1 mm 2 mps 693 mmHg 63%
    10:00 +26°C° 0.2 mm 2 mps 693 mmHg 61%
    11:00 +27°C° 0.2 mm 2 mps 693 mmHg 58%
    12:00 +27°C° 0.2 mm 3 mps 693 mmHg 55%
    13:00 +28°C° 0.5 mm 3 mps 693 mmHg 54%
    14:00 +28°C° 0.5 mm 3 mps 693 mmHg 53%
    15:00 +28°C° 0.5 mm 3 mps 692 mmHg 51%
    16:00 +27°C° 0.4 mm 2 mps 692 mmHg 55%
    17:00 +26°C° 0.4 mm 2 mps 693 mmHg 58%
    18:00 +26°C° 0.4 mm 1 mps 693 mmHg 61%
    19:00 +24°C° 0.2 mm 1 mps 693 mmHg 66%
    20:00 +22°C° 0.2 mm 1 mps 693 mmHg 70%
    21:00 +20°C° 0.2 mm 1 mps 694 mmHg 75%
    22:00 +19°C° 0.3 mm 1 mps 694 mmHg 76%
    23:00 +19°C° 0.3 mm 1 mps 694 mmHg 77%

    6 June, Saturday

    Time Temperature Precipitation Wind Pressure Humidity
    00:00 +18°C° 0.3 mm 1 mps 694 mmHg 78%
    01:00 +18°C° 0 mm 1 mps 694 mmHg 79%
    02:00 +18°C° 0 mm 1 mps 694 mmHg 79%
    03:00 +18°C° 0 mm 1 mps 694 mmHg 80%
    04:00 +18°C° 0 mm 1 mps 695 mmHg 79%
    05:00 +19°C° 0 mm 1 mps 695 mmHg 78%
    06:00 +18°C° 0 mm 0 mps 695 mmHg 77%
    07:00 +21°C° 0.1 mm 1 mps 696 mmHg 71%
    08:00 +21°C° 0.1 mm 2 mps 696 mmHg 65%
    09:00 +22°C° 0.1 mm 3 mps 696 mmHg 60%
    10:00 +24°C° 0.4 mm 3 mps 696 mmHg 59%
    11:00 +25°C° 0.4 mm 3 mps 696 mmHg 58%
    12:00 +25°C° 0.4 mm 4 mps 696 mmHg 57%
    13:00 +25°C° 0.5 mm 4 mps 695 mmHg 56%
    14:00 +25°C° 0.5 mm 3 mps 695 mmHg 56%
    15:00 +26°C° 0.5 mm 3 mps 695 mmHg 56%
    16:00 +25°C° 0.3 mm 3 mps 695 mmHg 59%
    17:00 +24°C° 0.3 mm 3 mps 695 mmHg 61%
    18:00 +24°C° 0.3 mm 2 mps 695 mmHg 64%
    19:00 +21°C° 0 mm 2 mps 695 mmHg 67%
    20:00 +20°C° 0 mm 2 mps 695 mmHg 70%
    21:00 +19°C° 0 mm 1 mps 695 mmHg 73%
    22:00 +19°C° 0.1 mm 1 mps 695 mmHg 74%
    23:00 +18°C° 0.1 mm 1 mps 695 mmHg 74%

    7 June, Sunday

    Time Temperature Precipitation Wind Pressure Humidity
    00:00 +18°C° 0.1 mm 1 mps 695 mmHg 74%
    01:00 +18°C° 0 mm 1 mps 695 mmHg 74%
    02:00 +18°C° 0 mm 1 mps 695 mmHg 74%
    03:00 +16°C° 0 mm 1 mps 695 mmHg 74%
    04:00 +18°C° 0 mm 1 mps 695 mmHg 72%
    05:00 +19°C° 0 mm 1 mps 695 mmHg 70%
    06:00 +18°C° 0 mm 0 mps 696 mmHg 68%
    07:00 +20°C° 0.1 mm 1 mps 696 mmHg 64%
    08:00 +20°C° 0.1 mm 2 mps 696 mmHg 60%
    09:00 +21°C° 0.1 mm 2 mps 696 mmHg 56%
    10:00 +23°C° 0.2 mm 2 mps 696 mmHg 54%
    11:00 +24°C° 0.2 mm 2 mps 696 mmHg 51%
    12:00 +24°C° 0.2 mm 2 mps 696 mmHg 49%
    13:00 +25°C° 0.3 mm 2 mps 695 mmHg 48%
    14:00 +25°C° 0.3 mm 2 mps 695 mmHg 47%
    15:00 +26°C° 0.3 mm 2 mps 695 mmHg 45%
    16:00 +25°C° 0 mm 2 mps 695 mmHg 48%
    17:00 +25°C° 0 mm 1 mps 695 mmHg 51%
    18:00 +24°C° 0 mm 1 mps 694 mmHg 53%
    19:00 +22°C° 0 mm 1 mps 694 mmHg 56%
    20:00 +21°C° 0 mm 1 mps 694 mmHg 58%
    21:00 +18°C° 0 mm 2 mps 694 mmHg 61%
    22:00 +18°C° 0 mm 2 mps 694 mmHg 62%
    23:00 +17°C° 0 mm 2 mps 694 mmHg 63%
    Show more